Corning, AR

4:57 AM CDT on October 19, 2017 (GMT -0500)
Corning

Weather History for K4M9 - May, 2012

Change the Weather History Date:

Tuesday, May 1, 2012

  Actual Average (KARG) Record (KARG)
Temperature  
Mean Temperature 78 °F -  
Max Temperature 89 °F 73 °F 89 °F (2012)
Min Temperature 66 °F 54 °F 41 °F (2005)
Cooling Degree Days 12    
Growing Degree Days 28 (Base 50)    
Moisture  
Dew Point 63 °F    
Average Humidity 63    
Maximum Humidity 100    
Minimum Humidity 36    
Precipitation  
Precipitation 0.06 in - - ()
Sea Level Pressure  
Sea Level Pressure 29.93 in    
Wind  
Wind Speed 11 mph (SSW)    
Max Wind Speed 29 mph    
Max Gust Speed 37 mph    
Visibility 10 miles    
Events Rain    
Averages and records for this station are not official NWS values.
T = Trace of Precipitation, MM = Missing Value Source: NWS Daily Summary

Daily Weather History Graph

Daily Weather History Graph

Search for Another Location

Airport or City:

Trip Planner

Search our weather history database for the weather conditions in past years. The results will help you decide how hot, cold, wet, or windy it might be!

Date:

Astronomy

May. 01, 2012 Rise Set
Actual Time 6:08 AM CDT 7:50 PM CDT
Civil Twilight 5:41 AM CDT 8:18 PM CDT
Nautical Twilight 5:07 AM CDT 8:52 PM CDT
Astronomical Twilight 4:32 AM CDT 9:27 PM CDT
Moon 3:02 PM CDT (5/1) 2:57 AM CDT (5/1)
Length of Visible Light 14h 37m
Length of Day
13h 42m
Waxing Gibbous, 74% of the Moon is Illuminated
May 1
Waxing Gibbous
May 5
Full
May 12
Last Quarter
May 20
New
May 28
First Quarter

Hourly Weather History & Observations

Time (CDT) Temp. Heat Index Dew Point Humidity Pressure Visibility Wind Dir Wind Speed Gust Speed Precip Events Conditions
12:15 AM 68.0 °F - 66.2 °F 94% 29.98 in 10.0 mi South 3.5 mph - N/A   Clear
12:35 AM 68.0 °F - 66.2 °F 94% 29.99 in 10.0 mi South 5.8 mph - N/A   Clear
12:55 AM 68.0 °F - 66.2 °F 94% 29.98 in 10.0 mi South 4.6 mph - N/A   Clear
1:15 AM 68.0 °F - 64.4 °F 88% 29.98 in 10.0 mi Calm Calm - N/A   Clear
1:35 AM 68.0 °F - 64.4 °F 88% 29.98 in 10.0 mi South 3.5 mph - N/A   Clear
1:55 AM 68.0 °F - 66.2 °F 94% 29.98 in 10.0 mi South 5.8 mph - N/A   Clear
2:15 AM 66.2 °F - 64.4 °F 94% 29.98 in 9.0 mi South 4.6 mph - N/A   Clear
2:35 AM 66.2 °F - 64.4 °F 94% 29.97 in 10.0 mi SE 4.6 mph - N/A   Clear
2:55 AM 66.2 °F - 64.4 °F 94% 29.96 in 10.0 mi SSE 4.6 mph - N/A   Clear
3:15 AM 66.2 °F - 64.4 °F 94% 29.96 in 9.0 mi SE 5.8 mph - N/A   Clear
3:35 AM 66.2 °F - 64.4 °F 94% 29.96 in 10.0 mi SE 6.9 mph - N/A   Clear
3:55 AM 66.2 °F - 66.2 °F 100% 29.96 in 9.0 mi SE 8.1 mph - N/A   Clear
4:15 AM 68.0 °F - 66.2 °F 94% 29.97 in 9.0 mi SSE 5.8 mph - N/A   Mostly Cloudy
4:35 AM 66.2 °F - 66.2 °F 100% 29.97 in 8.0 mi SSE 5.8 mph - N/A   Mostly Cloudy
4:55 AM 68.0 °F - 66.2 °F 94% 29.96 in 7.0 mi SSE 5.8 mph - N/A   Overcast
5:15 AM 68.0 °F - 66.2 °F 94% 29.96 in 9.0 mi SSE 6.9 mph - N/A   Mostly Cloudy
5:35 AM 68.0 °F - 66.2 °F 94% 29.96 in 10.0 mi SSE 5.8 mph - N/A   Partly Cloudy
5:55 AM 68.0 °F - 66.2 °F 94% 29.96 in 10.0 mi South 8.1 mph - N/A   Clear
6:15 AM 68.0 °F - 66.2 °F 94% 29.97 in 8.0 mi South 9.2 mph - N/A   Clear
6:35 AM 69.8 °F - 66.2 °F 88% 29.97 in 9.0 mi South 10.4 mph - N/A   Clear
6:55 AM 71.6 °F - 66.2 °F 83% 29.97 in 10.0 mi South 13.8 mph - N/A   Clear
7:35 AM 73.4 °F - 66.2 °F 78% 29.97 in 10.0 mi SSW 16.1 mph - N/A   Partly Cloudy
7:55 AM 73.4 °F - 66.2 °F 78% 29.98 in 9.0 mi SSW 16.1 mph - N/A   Mostly Cloudy
8:15 AM 73.4 °F - 66.2 °F 78% 30.00 in 10.0 mi SW 13.8 mph - N/A   Mostly Cloudy
8:35 AM 73.4 °F - 66.2 °F 78% 30.00 in 10.0 mi SW 13.8 mph - N/A   Clear
9:35 AM 77.0 °F - 66.2 °F 69% 29.97 in 5.0 mi SSW 11.5 mph - N/A   Haze
9:55 AM 78.8 °F - 64.4 °F 61% 29.96 in 10.0 mi SSW 12.7 mph - N/A   Clear
10:15 AM 80.6 °F 82.3 °F 64.4 °F 58% 29.94 in 10.0 mi South 15.0 mph 19.6 mph N/A   Clear
10:35 AM 80.6 °F 82.3 °F 64.4 °F 58% 29.93 in 10.0 mi South 20.7 mph 26.5 mph N/A   Clear
10:55 AM 82.4 °F 83.9 °F 64.4 °F 54% 29.94 in 10.0 mi SW 23.0 mph 29.9 mph N/A   Clear
11:15 AM 84.2 °F 85.6 °F 64.4 °F 51% 29.94 in 10.0 mi SSW 23.0 mph 33.4 mph N/A   Clear
11:35 AM 84.2 °F 85.6 °F 64.4 °F 51% 29.93 in 10.0 mi SSW 21.9 mph 31.1 mph N/A   Clear
11:55 AM 86.0 °F 86.6 °F 62.6 °F 45% 29.93 in 10.0 mi SSW 25.3 mph 33.4 mph N/A   Clear
12:15 PM 86.0 °F 86.6 °F 62.6 °F 45% 29.93 in 10.0 mi SW 26.5 mph 33.4 mph N/A   Clear
12:35 PM 86.0 °F 86.6 °F 62.6 °F 45% 29.93 in 9.0 mi SW 25.3 mph 33.4 mph N/A Rain Light Rain
12:55 PM 86.0 °F 86.6 °F 62.6 °F 45% 29.92 in 10.0 mi SSW 19.6 mph 34.5 mph N/A Rain Light Rain
1:15 PM 87.8 °F 87.6 °F 60.8 °F 40% 29.92 in 9.0 mi SSW 24.2 mph 33.4 mph N/A Rain Light Rain
1:35 PM 89.6 °F 89.5 °F 60.8 °F 38% 29.91 in 10.0 mi SSW 28.8 mph 36.8 mph N/A Rain Light Rain
1:55 PM 89.6 °F 88.9 °F 59.0 °F 36% 29.91 in 10.0 mi SSW 27.6 mph 33.4 mph 0.01 in Rain Light Rain
2:15 PM 89.6 °F 90.1 °F 62.6 °F 40% 29.91 in 10.0 mi SSW 27.6 mph 33.4 mph N/A Rain Light Rain
2:35 PM 89.6 °F 89.5 °F 60.8 °F 38% 29.91 in 10.0 mi SSW 23.0 mph 31.1 mph N/A Rain Light Rain
2:55 PM 89.6 °F 89.5 °F 60.8 °F 38% 29.90 in 10.0 mi SSW 23.0 mph 33.4 mph 0.01 in Rain Light Rain
3:15 PM 89.6 °F 89.5 °F 60.8 °F 38% 29.90 in 10.0 mi SSW 23.0 mph 31.1 mph N/A Rain Light Rain
3:35 PM 89.6 °F 89.5 °F 60.8 °F 38% 29.89 in 10.0 mi SW 23.0 mph 32.2 mph N/A Rain Light Rain
3:55 PM 89.6 °F 88.9 °F 59.0 °F 36% 29.88 in 10.0 mi SSW 27.6 mph 33.4 mph 0.01 in Rain Light Rain
4:15 PM 89.6 °F 88.9 °F 59.0 °F 36% 29.88 in 10.0 mi SSW 26.5 mph 33.4 mph N/A Rain Light Rain
4:35 PM 89.6 °F 88.9 °F 59.0 °F 36% 29.88 in 10.0 mi SSW 23.0 mph 31.1 mph N/A Rain Light Rain
4:55 PM 89.6 °F 88.9 °F 59.0 °F 36% 29.87 in 10.0 mi SSW 25.3 mph 29.9 mph 0.01 in Rain Light Rain
5:15 PM 89.6 °F 88.9 °F 59.0 °F 36% 29.87 in 10.0 mi SW 20.7 mph 28.8 mph N/A Rain Light Rain
5:35 PM 89.6 °F 88.9 °F 59.0 °F 36% 29.87 in 10.0 mi SSW 24.2 mph - N/A Rain Light Rain
5:55 PM 89.6 °F 88.9 °F 59.0 °F 36% 29.86 in 10.0 mi SW 18.4 mph - 0.01 in Rain Light Rain
6:15 PM 87.8 °F 87.1 °F 59.0 °F 38% 29.86 in 10.0 mi SSW 17.3 mph 21.9 mph N/A Rain Light Rain
6:35 PM 86.0 °F 85.4 °F 59.0 °F 40% 29.86 in 10.0 mi SSW 19.6 mph 26.5 mph N/A Rain Light Rain
6:55 PM 86.0 °F 85.4 °F 59.0 °F 40% 29.86 in 10.0 mi SSW 16.1 mph 23.0 mph 0.01 in Rain Light Rain
7:15 PM 84.2 °F 83.8 °F 59.0 °F 42% 29.86 in 10.0 mi SSW 13.8 mph 19.6 mph N/A Rain Light Rain
7:35 PM 84.2 °F 83.8 °F 59.0 °F 42% 29.87 in 10.0 mi SSW 11.5 mph - N/A Rain Light Rain
7:55 PM 80.6 °F 81.5 °F 60.8 °F 51% 29.87 in 10.0 mi SSW 9.2 mph - N/A Rain Light Rain
8:15 PM 80.6 °F 81.1 °F 59.0 °F 48% 29.88 in 10.0 mi South 9.2 mph - N/A   Clear
8:35 PM 77.0 °F - 60.8 °F 57% 29.88 in 10.0 mi South 6.9 mph - N/A   Clear
8:55 PM 78.8 °F - 60.8 °F 54% 29.89 in 10.0 mi South 9.2 mph - N/A   Clear
9:15 PM 77.0 °F - 62.6 °F 61% 29.89 in 10.0 mi South 10.4 mph - N/A   Clear
9:35 PM 77.0 °F - 62.6 °F 61% 29.89 in 10.0 mi South 10.4 mph - N/A   Clear
9:55 PM 78.8 °F - 62.6 °F 57% 29.90 in 10.0 mi South 11.5 mph - N/A   Clear
10:15 PM 77.0 °F - 62.6 °F 61% 29.90 in 10.0 mi South 12.7 mph - N/A   Clear
10:35 PM 77.0 °F - 62.6 °F 61% 29.91 in 10.0 mi South 12.7 mph - N/A   Clear
10:55 PM 77.0 °F - 62.6 °F 61% 29.91 in 10.0 mi South 13.8 mph - N/A   Clear
11:15 PM 77.0 °F - 62.6 °F 61% 29.91 in 10.0 mi South 12.7 mph - N/A   Clear
11:35 PM 77.0 °F - 60.8 °F 57% 29.91 in 10.0 mi South 13.8 mph - N/A   Clear
11:55 PM 77.0 °F - 60.8 °F 57% 29.92 in 10.0 mi South 11.5 mph - N/A   Clear